Location: *
(37.5724°S, 58.0067°E)
Time: 02:57:55
(UTC+00:00)

ISS - Visible Passes

Search period start: 09 December 2022 00:00
Search period end: 19 December 2022 00:00
Orbit: 414 x 420 km, 51.6° (Epoch: 08 December)

Date Brightness Start Highest point End Pass type
(mag) Time Alt. Az. Time Alt. Az. Time Alt. Az.
09 Dec -1.2 18:58:27 22° SSW 18:58:27 22° SSW 19:00:43 10° SSE visible
09 Dec -1.4 23:48:28 10° SSW 23:51:31 28° SSE 23:54:33 10° E visible
10 Dec -2.6 16:30:11 10° N 16:32:54 23° NE 16:35:39 10° ESE visible
10 Dec -2.1 18:06:22 10° WNW 18:09:31 35° SSW 18:12:43 10° SE visible
10 Dec -0.1 19:46:27 10° SSW 19:47:06 10° SSW 19:47:46 10° S visible
10 Dec -0.8 23:00:30 10° SSW 23:03:07 20° SSE 23:05:43 10° ESE visible
11 Dec -3.2 17:17:52 10° WNW 17:21:12 60° SW 17:24:36 10° SE visible
11 Dec -0.3 18:56:51 10° SW 18:58:33 13° SSW 19:00:16 10° S visible
11 Dec -0.4 22:12:37 10° SSW 22:14:38 15° SSE 22:16:39 10° ESE visible
11 Dec -3.5 23:48:27 10° SW 23:51:53 76° SE 23:55:18 10° NE visible
12 Dec -3.9 16:29:34 10° NW 16:32:56 75° NE 16:36:22 10° SE visible
12 Dec -0.6 18:07:40 10° WSW 18:10:02 17° SSW 18:12:25 10° SSE visible
12 Dec -0.1 21:24:54 10° S 21:26:05 11° SSE 21:27:16 10° SE visible
12 Dec -2.4 23:00:16 10° SW 23:03:34 43° SE 23:06:51 10° ENE visible
13 Dec -1.2 17:18:43 10° W 17:21:34 24° SSW 17:24:26 10° SSE visible
13 Dec -1.5 22:12:11 10° SSW 22:15:11 27° SSE 22:18:09 10° E visible
13 Dec -3.0 23:48:50 10° WSW 23:51:57 33° NW 23:55:02 10° NNE visible
14 Dec -2.0 16:29:57 10° WNW 16:33:08 37° SW 16:36:21 10° SE visible
14 Dec -0.1 18:09:52 10° SSW 18:10:41 11° SSW 18:11:30 10° S visible
14 Dec -0.9 21:24:09 10° SSW 21:26:42 19° SSE 21:29:14 10° ESE visible
14 Dec -3.8 23:00:20 10° SW 23:03:43 62° NW 23:07:05 10° NE visible
15 Dec -0.4 17:20:17 10° SW 17:22:04 13° SSW 17:23:52 10° SSE visible
15 Dec -0.5 20:36:13 10° SSW 20:38:08 14° SSE 20:40:03 10° SE visible
15 Dec -3.1 22:11:59 10° SW 22:14:41 50° SSW 22:14:41 50° SSW visible
16 Dec -0.6 16:31:03 10° WSW 16:33:29 18° SSW 16:35:56 10° SSE visible
16 Dec -0.3 19:48:28 10° S 19:49:30 11° SSE 19:50:33 10° SSE visible
16 Dec -1.2 21:23:45 10° SW 21:24:54 19° SSW 21:24:54 19° SSW visible
17 Dec -0.9 20:35:36 10° SSW 20:36:58 18° S 20:36:58 18° S visible
18 Dec -0.3 16:33:00 10° SSW 16:33:58 11° SSW 16:34:56 10° S visible
18 Dec -0.9 19:47:31 10° SSW 19:49:29 18° SSE 19:49:29 18° SSE visible
